Weather in Ovata

Russia / Republic of Kalmykia     46°51′06″N   44°22′22″E
temp.,
°C
wind,
m/s
gust,
m/s
humid.,
%
clouds,
%
prec.,
mm/h
press.,
hPa
HPBL,
m
16 april, fri
fri1600:00+11wnw597150 0.0 1017150
03:00+10wnw48815 0.0 1018137
06:00+9wnw48845 0.0 1018150
09:00+15nw565899 0.0 1019536
12:00+19nw554441 0.0 10181153
15:00+20nw44375 0.0 10181677
18:00+18n22475 0.0 101738
21:00+15nw2353100 0.0 101940
17 april, sat
sat1700:00+12nnw3483100 0.3 1020129
03:00+11nne3377100 0.4 101926
06:00+12wnw3475100 0.1 102088
09:00+11nnw2292100 2.3 1021132
12:00+11wnw2392100 4.4 1021282
15:00+11wnw3487100 7.3 1021395
18:00+11nw2482100 0.1 1022253
21:00+10w228599 0.1 102229
18 april, sun
sun1800:00+10wnw3587100 0.0 1022122
03:00+8wnw348815 0.0 102263
06:00+8n118579 0.0 102112
09:00+12e1263100 0.0 1021479
12:00+16se115499 0.0 10201311
15:00+15ssw4363100 0.1 1019728
18:00+13ssw2281100 0.3 1019186
21:00+12s2387100 0.4 1020122
19 april, mon
mon1900:00+12e2382100 0.1 1019106
03:00+12se2584100 0.3 1018194
06:00+12se3685100 0.0 1018231
09:00+15sse567099 0.0 1017532
12:00+17s5565100 0.0 1016842
15:00+16sw4682100 1.4 1016467
18:00+15s3588100 1.2 1015227
21:00+14sse369698 3.1 1015210
20 april, tue
tue2000:00+14se3793100 0.2 1015204
03:00+14ese71481100 0.2 1012376
06:00+13ese91875100 0.0 1011517
09:00+16se111964100 0.0 1009812
12:00+20se121750100 0.0 1009992
15:00+19ese111548100 0.1 1008820
18:00+17se121959100 0.8 1008519
21:00+15sw3668100 0.8 1013151